CCD896A ZYCH-ZYCH

Flight info

Callsign CCD896A
Flight time 0h 2m
Altitude 32000
Route CHI
Aircraft B738/M-SDE2E3FGILRWXY/LB2

Departure

Time 2026-04-25 17:13
Airport Changhai Dachangshandao Airport (ZYCH)

Arrival

Time 2026-04-25 17:15
Airport Changhai Dachangshandao Airport (ZYCH)
Time Latitude Longitude Altitude Speed Heading
2026-04-25 17:07 39.26679 122.66528 10 ft 0 kts 339°
2026-04-25 17:07 39.26678 122.66528 10 ft 0 kts 332°
2026-04-25 17:07 39.26679 122.66528 23 ft 11 kts 319°
2026-04-25 17:08 39.26774 122.66691 493 ft 49 kts 49°
2026-04-25 17:08 39.26921 122.67296 499 ft 120 kts 33°
2026-04-25 17:08 39.27365 122.66891 260 ft 114 kts 217°
2026-04-25 17:08 39.26696 122.66557 197 ft 91 kts 208°
2026-04-25 17:09 39.26684 122.66476 6 ft 0 kts 197°
2026-04-25 17:09 39.26679 122.66528 10 ft 0 kts 340°
2026-04-25 17:09 39.26727 122.66589 10 ft 11 kts 42°
2026-04-25 17:09 39.26732 122.66595 10 ft 0 kts 44°
2026-04-25 17:12 39.26711 122.66563 47 ft 12 kts 98°
2026-04-25 17:12 39.26452 122.66614 184 ft 82 kts 167°
2026-04-25 17:12 39.25703 122.66936 483 ft 121 kts 161°
2026-04-25 17:13 39.25474 122.67920 1088 ft 143 kts 85°
2026-04-25 17:13 39.25681 122.68771 1187 ft 165 kts 67°
2026-04-25 17:13 39.26659 122.70574 873 ft 189 kts 45°
2026-04-25 17:13 39.27587 122.71739 739 ft 185 kts 42°
2026-04-25 17:14 39.28445 122.72932 728 ft 173 kts 48°
2026-04-25 17:14 39.29129 122.74078 578 ft 167 kts 60°
2026-04-25 17:14 39.29331 122.75470 503 ft 140 kts 118°
2026-04-25 17:14 39.28992 122.75123 609 ft 93 kts 266°
2026-04-25 17:15 39.29280 122.74864 456 ft 100 kts 43°
2026-04-25 17:15 39.29099 122.75455 106 ft 23 kts 198°
2026-04-25 17:15 39.29259 122.75208 387 ft 48 kts 289°
2026-04-25 17:15 39.29163 122.75133 351 ft 17 kts 145°
2026-04-25 17:16 39.29154 122.75146 237 ft 3 kts 190°
2026-04-25 17:16 39.29127 122.75140 144 ft 4 kts 132°
2026-04-25 17:16 39.29131 122.75146 -1 ft 1 kts
2026-04-25 17:16 39.29137 122.75158 -1 ft 1 kts 151°
2026-04-25 17:17 39.29143 122.75172 -1 ft 2 kts 261°
2026-04-25 17:17 39.29154 122.75188 -2 ft 2 kts
2026-04-25 17:17 39.29166 122.75204 -2 ft 2 kts 80°
2026-04-25 17:17 39.26679 122.66528 10 ft 0 kts 340°
2026-04-25 17:22 39.26678 122.66528 10 ft 0 kts 340°